This demonstration page uses our WeatherBlox Daily Observations layout. Learn more.

Left ArrowRight Arrow

Hourly Observations for December 23, 2016

Temp ( °F °C ) Dew Point ( °F °C ) Humidity (%) Winds ( mph kmh ) Pressure ( in mb ) Visibility ( mi km ) Precip ( " mm )
12:51 am 00:51 Clear 47 8.3 44 6.7 90 90 W 3 6 30.01 1016 10 16 N/A
1:51 am 01:51 Clear 46 7.8 44 6.7 93 93 N N/A 30.00 1016 10 16 N/A
2:51 am 02:51 Clear 44 6.7 42 5.6 93 93 S 3 6 30.02 1017 10 16 N/A
3:51 am 03:51 Clear 43 6.1 41 5 93 93 E 3 6 30.01 1016 9 14 N/A
4:51 am 04:51 Clear 41 5 40 4.4 96 96 ENE 3 6 30.02 1017 10 16 N/A
5:51 am 05:51 Clear 41 5 40 4.4 96 96 NE 6 9 30.03 1017 10 16 N/A
6:51 am 06:51 Clear 40 4.4 39 3.9 97 97 ENE 3 6 30.06 1018 10 16 N/A
7:51 am 07:51 Sunny 41 5 40 4.4 96 96 ENE 3 6 30.08 1019 10 16 N/A
8:51 am 08:51 Sunny 48 8.9 44 6.7 86 86 N N/A 30.06 1018 10 16 N/A
9:51 am 09:51 Sunny 50 10 45 7.2 83 83 N N/A 30.07 1018 10 16 N/A
10:51 am 10:51 Sunny 53 11.7 45 7.2 74 74 N N/A 30.06 1018 10 16 N/A
11:51 am 11:51 Sunny 57 13.9 45 7.2 64 64 SW 3 6 30.04 1017 10 16 N/A
12:51 pm 12:51 Sunny 58 14.4 44 6.7 60 60 N N/A 30.01 1016 10 16 N/A
1:51 pm 13:51 Sunny 60 15.6 42 5.6 52 52 N N/A 29.98 1015 10 16 N/A
2:51 pm 14:51 Sunny 60 15.6 42 5.6 52 52 VRB 7 11 29.98 1015 10 16 N/A
3:51 pm 15:51 Sunny 60 15.6 43 6.1 53 53 N N/A 29.98 1015 10 16 N/A
4:51 pm 16:51 Sunny 58 14.4 43 6.1 58 58 WSW 5 7 29.98 1015 10 16 N/A
5:51 pm 17:51 Clear 53 11.7 45 7.2 74 74 WNW 5 7 30.01 1016 10 16 N/A
6:51 pm 18:51 Clear with Light Rain 51 10.6 45 7.2 80 80 NW 6 9 30.02 1017 10 16 N/A
7:51 pm 19:51 Clear 49 9.4 43 6.1 80 80 N N/A 30.01 1016 10 16 N/A
8:51 pm 20:51 Clear 47 8.3 44 6.7 90 90 SE 6 9 29.98 1015 10 16 N/A
9:51 pm 21:51 Clear 47 8.3 42 5.6 83 83 ESE 9 15 29.97 1015 10 16 N/A
10:51 pm 22:51 Clear 46 7.8 43 6.1 89 89 SSE 8 13 29.97 1015 10 16 N/A
11:51 pm 23:51 Clear 44 6.7 41 5 89 89 ESE 3 6 29.96 1015 10 16 N/A

Powered by AerisWeather